RYR7 LIBD-LGAV

Flight info

Callsign RYR7
Flight time 1h 5m
Altitude 37000
Route DOLON DCT KAPPO DCT NOSTO UN7 NEMES
Aircraft B738/M-SDE2E3FGHIRWXY/LB1

Departure

Time 2026-04-20 13:32
Airport Bari Karol Wojtyła International Airport (LIBD)

Arrival

Time 2026-04-20 14:37
Airport Athens Eleftherios Venizelos International Airport (LGAV)
Time Latitude Longitude Altitude Speed Heading
2026-04-20 13:06 41.13540 16.76401 135 ft 0 kts 159°
2026-04-20 13:23 41.13552 16.76396 135 ft 4 kts 163°
2026-04-20 13:23 41.13578 16.76388 135 ft 4 kts 176°
2026-04-20 13:24 41.13604 16.76390 135 ft 4 kts 202°
2026-04-20 13:24 41.13621 16.76406 135 ft 1 kts 249°
2026-04-20 13:24 41.13623 16.76412 135 ft 0 kts 249°
2026-04-20 13:26 41.13616 16.76391 135 ft 6 kts 249°
2026-04-20 13:27 41.13592 16.76303 135 ft 14 kts 249°
2026-04-20 13:27 41.13556 16.76169 135 ft 16 kts 261°
2026-04-20 13:27 41.13612 16.76051 135 ft 5 kts 319°
2026-04-20 13:27 41.13615 16.76048 135 ft 1 kts 319°
2026-04-20 13:28 41.13627 16.76033 135 ft 4 kts 315°
2026-04-20 13:28 41.13639 16.75993 135 ft 6 kts 275°
2026-04-20 13:28 41.13625 16.75921 135 ft 10 kts 250°
2026-04-20 13:28 41.13592 16.75804 137 ft 17 kts 250°
2026-04-20 13:29 41.13544 16.75632 137 ft 23 kts 249°
2026-04-20 13:29 41.13485 16.75425 141 ft 26 kts 249°
2026-04-20 13:29 41.13415 16.75181 144 ft 29 kts 249°
2026-04-20 13:29 41.13346 16.74933 147 ft 28 kts 249°
2026-04-20 13:30 41.13279 16.74700 151 ft 26 kts 249°
2026-04-20 13:30 41.13217 16.74483 152 ft 25 kts 249°
2026-04-20 13:30 41.13167 16.74276 151 ft 23 kts 272°
2026-04-20 13:30 41.13255 16.74104 144 ft 23 kts 352°
2026-04-20 13:31 41.13343 16.74258 146 ft 23 kts 69°
2026-04-20 13:31 41.13421 16.74531 145 ft 58 kts 70°
2026-04-20 13:31 41.13644 16.75327 140 ft 122 kts 70°
2026-04-20 13:31 41.14012 16.76564 227 ft 162 kts 67°
2026-04-20 13:32 41.14460 16.77947 917 ft 162 kts 68°
2026-04-20 13:32 41.14879 16.79397 1521 ft 172 kts 69°
2026-04-20 13:32 41.15308 16.80899 2104 ft 185 kts 68°
2026-04-20 13:32 41.15811 16.82639 2366 ft 216 kts 68°
2026-04-20 13:33 41.16321 16.84601 2581 ft 238 kts 81°
2026-04-20 13:33 41.16075 16.86709 2941 ft 248 kts 116°
2026-04-20 13:33 41.15477 16.88285 3135 ft 263 kts 120°
2026-04-20 13:33 41.14874 16.89784 3420 ft 273 kts 120°
2026-04-20 13:34 41.14024 16.91903 4071 ft 279 kts 120°
2026-04-20 13:34 41.13133 16.94167 4924 ft 281 kts 120°
2026-04-20 13:34 41.12236 16.96495 5772 ft 283 kts 118°
2026-04-20 13:34 41.11344 16.98847 6560 ft 286 kts 118°
2026-04-20 13:35 41.10448 17.01235 7287 ft 291 kts 117°
2026-04-20 13:35 41.09553 17.03644 8005 ft 295 kts 117°
2026-04-20 13:35 41.08642 17.06108 8768 ft 299 kts 116°
2026-04-20 13:35 41.07718 17.08614 9485 ft 305 kts 116°
2026-04-20 13:36 41.06780 17.11161 10184 ft 310 kts 116°
2026-04-20 13:36 41.05813 17.13791 10463 ft 331 kts 116°
2026-04-20 13:36 41.04768 17.16633 10636 ft 353 kts 116°
2026-04-20 13:36 41.03656 17.19655 10884 ft 372 kts 116°
2026-04-20 13:37 41.02510 17.22768 11423 ft 379 kts 116°
2026-04-20 13:37 41.01361 17.25883 12110 ft 382 kts 115°
2026-04-20 13:37 41.00182 17.29078 12839 ft 385 kts 115°
2026-04-20 13:37 40.98995 17.32293 13532 ft 390 kts 115°
2026-04-20 13:38 40.97811 17.35495 14178 ft 395 kts 115°
2026-04-20 13:38 40.96593 17.38786 14831 ft 399 kts 116°
2026-04-20 13:38 40.95356 17.42123 15511 ft 403 kts 115°
2026-04-20 13:38 40.94123 17.45449 16159 ft 408 kts 116°
2026-04-20 13:39 40.92861 17.48847 16786 ft 413 kts 116°
2026-04-20 13:39 40.91598 17.52245 17401 ft 418 kts 116°
2026-04-20 13:39 40.90294 17.55746 18036 ft 423 kts 116°
2026-04-20 13:39 40.88929 17.59152 18591 ft 427 kts 122°
2026-04-20 13:40 40.87136 17.62308 19119 ft 430 kts 132°
2026-04-20 13:40 40.85110 17.65270 19716 ft 433 kts 134°
2026-04-20 13:40 40.83054 17.68220 20257 ft 437 kts 134°
2026-04-20 13:40 40.81013 17.71152 20765 ft 441 kts 133°
2026-04-20 13:41 40.78925 17.74176 21295 ft 445 kts 133°
2026-04-20 13:41 40.76859 17.77189 21817 ft 448 kts 133°
2026-04-20 13:41 40.74752 17.80274 22332 ft 452 kts 133°
2026-04-20 13:41 40.72629 17.83389 22842 ft 456 kts 133°
2026-04-20 13:42 40.70517 17.86486 23326 ft 459 kts 133°
2026-04-20 13:42 40.66217 17.92781 24173 ft 466 kts 133°
2026-04-20 13:42 40.64035 17.95970 24597 ft 468 kts 133°
2026-04-20 13:43 40.61835 17.99179 25012 ft 471 kts 133°
2026-04-20 13:43 40.59579 18.02341 25407 ft 473 kts 136°
2026-04-20 13:43 40.57260 18.05366 25789 ft 476 kts 137°
2026-04-20 13:43 40.54850 18.08402 26157 ft 479 kts 137°
2026-04-20 13:44 40.52420 18.11430 26579 ft 479 kts 137°
2026-04-20 13:44 40.50019 18.14425 26979 ft 481 kts 137°
2026-04-20 13:44 40.47590 18.17472 27331 ft 484 kts 137°
2026-04-20 13:44 40.45141 18.20558 27655 ft 487 kts 137°
2026-04-20 13:45 40.42687 18.23662 27996 ft 490 kts 137°
2026-04-20 13:45 40.40224 18.26780 28340 ft 492 kts 137°
2026-04-20 13:45 40.37786 18.29868 28671 ft 494 kts 137°
2026-04-20 13:45 40.35292 18.33023 28993 ft 497 kts 137°
2026-04-20 13:46 40.32812 18.36156 29314 ft 499 kts 137°
2026-04-20 13:46 40.30306 18.39318 29625 ft 501 kts 137°
2026-04-20 13:46 40.27793 18.42485 29994 ft 502 kts 136°
2026-04-20 13:46 40.25272 18.45657 30492 ft 498 kts 136°
2026-04-20 13:47 40.22768 18.48806 30902 ft 496 kts 136°
2026-04-20 13:47 40.21116 18.50880 31128 ft 496 kts 136°
2026-04-20 13:47 40.17814 18.55022 31542 ft 497 kts 136°
2026-04-20 13:47 40.15306 18.58165 31919 ft 496 kts 136°
2026-04-20 13:48 40.12838 18.61254 32316 ft 494 kts 137°
2026-04-20 13:48 40.10364 18.64347 32686 ft 493 kts 137°
2026-04-20 13:48 40.07872 18.67460 33020 ft 492 kts 137°
2026-04-20 13:48 40.06223 18.69519 33242 ft 492 kts 137°
2026-04-20 13:49 40.03767 18.72580 33591 ft 491 kts 137°
2026-04-20 13:49 40.01288 18.75668 33950 ft 490 kts 137°
2026-04-20 13:49 39.98011 18.79746 34311 ft 490 kts 137°
2026-04-20 13:49 39.96340 18.81822 34424 ft 492 kts 137°
2026-04-20 13:50 39.93887 18.84868 34615 ft 493 kts 137°
2026-04-20 13:50 39.91392 18.87963 34864 ft 493 kts 137°
2026-04-20 13:50 39.88894 18.91059 35125 ft 493 kts 137°
2026-04-20 13:50 39.86435 18.94104 35340 ft 494 kts 137°
2026-04-20 13:51 39.83939 18.97191 35541 ft 495 kts 137°
2026-04-20 13:51 39.81469 19.00357 35769 ft 496 kts 132°
2026-04-20 13:51 39.79340 19.03839 35982 ft 496 kts 126°
2026-04-20 13:51 39.77312 19.07492 36215 ft 496 kts 125°
2026-04-20 13:52 39.75339 19.11112 36414 ft 497 kts 125°
2026-04-20 13:52 39.73338 19.14784 36609 ft 497 kts 125°
2026-04-20 13:52 39.71312 19.18474 36764 ft 499 kts 126°
2026-04-20 13:52 39.69277 19.22147 36955 ft 500 kts 126°
2026-04-20 13:53 39.65190 19.29445 37032 ft 504 kts 126°
2026-04-20 13:53 39.61063 19.36770 37028 ft 502 kts 126°
2026-04-20 13:54 39.56949 19.44055 37030 ft 497 kts 126°
2026-04-20 13:54 39.52886 19.51239 37039 ft 496 kts 126°
2026-04-20 13:55 39.48822 19.58411 37038 ft 495 kts 126°
2026-04-20 13:55 39.44731 19.65614 37037 ft 495 kts 126°
2026-04-20 13:56 39.40648 19.72787 37017 ft 496 kts 126°
2026-04-20 13:56 39.36566 19.79943 37054 ft 497 kts 126°
2026-04-20 13:57 39.32441 19.87157 37049 ft 500 kts 126°
2026-04-20 13:57 39.28313 19.94360 37049 ft 502 kts 126°
2026-04-20 13:58 39.24128 20.01648 37048 ft 503 kts 126°
2026-04-20 13:58 39.19971 20.08869 37048 ft 505 kts 126°
2026-04-20 13:59 39.15783 20.16130 37053 ft 505 kts 126°
2026-04-20 13:59 39.11571 20.23417 37050 ft 505 kts 126°
2026-04-20 14:00 39.07407 20.30679 37046 ft 504 kts 126°
2026-04-20 14:00 39.03265 20.37921 37053 ft 504 kts 126°
2026-04-20 14:01 38.99090 20.45196 37055 ft 503 kts 126°
2026-04-20 14:01 38.94944 20.52399 37050 ft 503 kts 126°
2026-04-20 14:02 38.90791 20.59598 37049 ft 502 kts 126°
2026-04-20 14:02 38.86642 20.66769 37048 ft 502 kts 127°
2026-04-20 14:03 38.82429 20.73933 37051 ft 501 kts 127°
2026-04-20 14:03 38.78199 20.81067 37051 ft 502 kts 127°
2026-04-20 14:04 38.73991 20.88161 37044 ft 502 kts 127°
2026-04-20 14:04 38.69774 20.95268 37052 ft 502 kts 127°
2026-04-20 14:05 38.65551 21.02373 37043 ft 501 kts 127°
2026-04-20 14:05 38.61329 21.09460 37035 ft 501 kts 127°
2026-04-20 14:06 38.57092 21.16556 37055 ft 501 kts 127°
2026-04-20 14:06 38.52867 21.23616 37037 ft 501 kts 127°
2026-04-20 14:07 38.48640 21.30665 37043 ft 501 kts 127°
2026-04-20 14:07 38.44405 21.37712 37041 ft 500 kts 127°
2026-04-20 14:08 38.40154 21.44770 37035 ft 500 kts 127°
2026-04-20 14:08 38.35940 21.51752 37042 ft 499 kts 128°
2026-04-20 14:09 38.31711 21.58743 37038 ft 499 kts 128°
2026-04-20 14:09 38.27453 21.65767 37040 ft 499 kts 128°
2026-04-20 14:10 38.23222 21.72732 37037 ft 499 kts 128°
2026-04-20 14:10 38.18947 21.79754 37054 ft 500 kts 128°
2026-04-20 14:11 38.14701 21.86713 37022 ft 501 kts 128°
2026-04-20 14:11 38.10416 21.93721 37025 ft 501 kts 128°
2026-04-20 14:12 38.06123 22.00727 37028 ft 502 kts 128°
2026-04-20 14:12 38.01848 22.07689 37032 ft 502 kts 128°
2026-04-20 14:13 37.97553 22.14670 37045 ft 503 kts 128°
2026-04-20 14:13 37.93243 22.21664 37017 ft 501 kts 128°
2026-04-20 14:14 37.91082 22.25162 36871 ft 504 kts 128°
2026-04-20 14:14 37.88924 22.28650 36315 ft 506 kts 128°
2026-04-20 14:14 37.86774 22.32123 35749 ft 504 kts 128°
2026-04-20 14:14 37.84610 22.35616 35103 ft 505 kts 128°
2026-04-20 14:15 37.82435 22.39127 34455 ft 507 kts 128°
2026-04-20 14:15 37.80249 22.42648 33721 ft 509 kts 128°
2026-04-20 14:15 37.78046 22.46192 32966 ft 511 kts 128°
2026-04-20 14:15 37.75864 22.49697 32243 ft 512 kts 128°
2026-04-20 14:16 37.73649 22.53253 31493 ft 512 kts 128°
2026-04-20 14:16 37.71470 22.56751 30749 ft 512 kts 128°
2026-04-20 14:16 37.69518 22.60514 29997 ft 510 kts 115°
2026-04-20 14:16 37.68030 22.64576 29415 ft 503 kts 112°
2026-04-20 14:17 37.66683 22.68584 28808 ft 497 kts 111°
2026-04-20 14:17 37.65350 22.72594 28253 ft 491 kts 111°
2026-04-20 14:17 37.64009 22.76548 27678 ft 486 kts 112°
2026-04-20 14:17 37.62888 22.80528 27105 ft 478 kts 101°
2026-04-20 14:18 37.62452 22.84662 26483 ft 470 kts 87°
2026-04-20 14:18 37.62692 22.88731 25893 ft 462 kts 78°
2026-04-20 14:18 37.63203 22.92657 25328 ft 458 kts 76°
2026-04-20 14:18 37.63782 22.96595 24726 ft 455 kts 75°
2026-04-20 14:19 37.64389 23.00516 24187 ft 451 kts 75°
2026-04-20 14:19 37.64993 23.04389 23698 ft 447 kts 75°
2026-04-20 14:19 37.65587 23.08189 22978 ft 444 kts 75°
2026-04-20 14:19 37.66188 23.12012 22466 ft 439 kts 75°
2026-04-20 14:20 37.66777 23.15732 21951 ft 434 kts 75°
2026-04-20 14:20 37.67373 23.19469 21414 ft 430 kts 75°
2026-04-20 14:20 37.67969 23.23161 20857 ft 427 kts 75°
2026-04-20 14:20 37.68565 23.26826 20309 ft 424 kts 75°
2026-04-20 14:21 37.69152 23.30415 19800 ft 420 kts 75°
2026-04-20 14:21 37.69751 23.34024 19301 ft 416 kts 74°
2026-04-20 14:21 37.70427 23.37573 18803 ft 413 kts 72°
2026-04-20 14:21 37.71106 23.40926 18324 ft 410 kts 72°
2026-04-20 14:22 37.71722 23.43920 17834 ft 407 kts 72°
2026-04-20 14:22 37.72440 23.47379 17309 ft 403 kts 72°
2026-04-20 14:22 37.73156 23.50802 16802 ft 399 kts 72°
2026-04-20 14:22 37.73861 23.54142 16296 ft 397 kts 72°
2026-04-20 14:23 37.74573 23.57498 15783 ft 394 kts 72°
2026-04-20 14:23 37.75288 23.60848 15281 ft 391 kts 72°
2026-04-20 14:23 37.75991 23.64123 14789 ft 388 kts 72°
2026-04-20 14:23 37.76701 23.67409 14315 ft 385 kts 72°
2026-04-20 14:24 37.77404 23.70642 13837 ft 383 kts 72°
2026-04-20 14:24 37.78116 23.73900 13316 ft 380 kts 72°
2026-04-20 14:24 37.78814 23.77073 12837 ft 377 kts 72°
2026-04-20 14:24 37.79515 23.80253 12385 ft 372 kts 72°
2026-04-20 14:25 37.80216 23.83409 11899 ft 370 kts 72°
2026-04-20 14:25 37.80916 23.86536 11423 ft 367 kts 72°
2026-04-20 14:25 37.81607 23.89596 10972 ft 364 kts 72°
2026-04-20 14:25 37.82412 23.92621 10513 ft 360 kts 63°
2026-04-20 14:26 37.83633 23.95368 10078 ft 356 kts 56°
2026-04-20 14:26 37.84935 23.97984 9603 ft 353 kts 55°
2026-04-20 14:26 37.86265 24.00591 9093 ft 351 kts 55°
2026-04-20 14:26 37.87602 24.03195 8579 ft 350 kts 55°
2026-04-20 14:27 37.88927 24.05776 8155 ft 346 kts 55°
2026-04-20 14:27 37.90334 24.08179 7689 ft 342 kts 44°
2026-04-20 14:27 37.92122 24.10154 7248 ft 337 kts 36°
2026-04-20 14:27 37.93968 24.11984 6755 ft 336 kts 35°
2026-04-20 14:28 37.95827 24.13792 6284 ft 335 kts 35°
2026-04-20 14:28 37.97653 24.15560 5808 ft 333 kts 35°
2026-04-20 14:28 37.99493 24.17338 5335 ft 331 kts 35°
2026-04-20 14:28 38.01314 24.19093 4855 ft 330 kts 35°
2026-04-20 14:29 38.03138 24.20839 4569 ft 322 kts 33°
2026-04-20 14:29 38.05079 24.22080 4460 ft 305 kts 14°
2026-04-20 14:29 38.07113 24.22419 4331 ft 284 kts 354°
2026-04-20 14:29 38.08936 24.21880 4208 ft 262 kts 333°
2026-04-20 14:30 38.10359 24.20590 4135 ft 244 kts 309°
2026-04-20 14:30 38.11189 24.18810 3991 ft 227 kts 285°
2026-04-20 14:30 38.11323 24.16895 3878 ft 213 kts 263°
2026-04-20 14:30 38.11113 24.15091 3804 ft 200 kts 261°
2026-04-20 14:31 38.10915 24.13388 3739 ft 191 kts 262°
2026-04-20 14:31 38.10728 24.11767 3558 ft 186 kts 261°
2026-04-20 14:31 38.10518 24.10149 3319 ft 183 kts 253°
2026-04-20 14:31 38.09838 24.08791 3047 ft 184 kts 224°
2026-04-20 14:32 38.08814 24.07775 3040 ft 189 kts 219°
2026-04-20 14:32 38.07775 24.06783 2992 ft 186 kts 218°
2026-04-20 14:32 38.06745 24.05803 2972 ft 184 kts 218°
2026-04-20 14:32 38.05753 24.04860 2942 ft 178 kts 218°
2026-04-20 14:33 38.04760 24.03912 2754 ft 179 kts 218°
2026-04-20 14:33 38.03768 24.02966 2519 ft 175 kts 217°
2026-04-20 14:33 38.02824 24.02066 2308 ft 166 kts 217°
2026-04-20 14:33 38.01929 24.01212 2081 ft 155 kts 217°
2026-04-20 14:34 38.01076 24.00399 1874 ft 151 kts 216°
2026-04-20 14:34 38.00239 23.99599 1686 ft 156 kts 216°
2026-04-20 14:34 37.99385 23.98783 1480 ft 154 kts 215°
2026-04-20 14:34 37.98547 23.97985 1282 ft 144 kts 216°
2026-04-20 14:35 37.97743 23.97216 1086 ft 147 kts 216°
2026-04-20 14:35 37.96929 23.96445 880 ft 144 kts 218°
2026-04-20 14:35 37.96152 23.95655 699 ft 147 kts 219°
2026-04-20 14:35 37.95336 23.94919 483 ft 142 kts 216°
2026-04-20 14:36 37.94564 23.94184 366 ft 137 kts 218°
2026-04-20 14:36 37.93802 23.93448 293 ft 134 kts 217°
2026-04-20 14:36 37.93138 23.92829 288 ft 103 kts 217°
2026-04-20 14:36 37.92669 23.92384 301 ft 63 kts 217°
2026-04-20 14:37 37.92352 23.92086 303 ft 42 kts 217°
2026-04-20 14:37 37.92206 23.91962 303 ft 18 kts 190°
2026-04-20 14:37 37.92119 23.92058 302 ft 17 kts 127°
2026-04-20 14:37 37.92156 23.92176 302 ft 17 kts 34°
2026-04-20 14:38 37.92247 23.92259 301 ft 16 kts 38°
2026-04-20 14:38 37.92333 23.92343 301 ft 15 kts 37°
2026-04-20 14:38 37.92417 23.92422 300 ft 15 kts 39°
2026-04-20 14:38 37.92469 23.92474 302 ft 14 kts 37°
2026-04-20 14:39 37.92548 23.92546 301 ft 14 kts 34°
2026-04-20 14:39 37.92646 23.92637 299 ft 13 kts 38°
2026-04-20 14:39 37.92691 23.92685 299 ft 13 kts 42°
2026-04-20 14:39 37.92761 23.92752 300 ft 12 kts 32°
2026-04-20 14:40 37.92830 23.92812 298 ft 12 kts 38°
2026-04-20 14:40 37.92873 23.92854 299 ft 6 kts 37°
2026-04-20 14:40 37.92907 23.92889 299 ft 6 kts 39°
2026-04-20 14:40 37.92941 23.92922 300 ft 6 kts 37°
2026-04-20 14:41 37.92989 23.92967 300 ft 11 kts 37°
2026-04-20 14:41 37.93067 23.93043 300 ft 16 kts 36°
2026-04-20 14:41 37.93153 23.93123 300 ft 15 kts 37°
2026-04-20 14:41 37.93235 23.93200 301 ft 14 kts 35°
2026-04-20 14:42 37.93312 23.93274 300 ft 14 kts 39°
2026-04-20 14:42 37.93386 23.93347 300 ft 13 kts 36°
2026-04-20 14:42 37.93435 23.93430 298 ft 13 kts 108°
2026-04-20 14:42 37.93382 23.93519 299 ft 12 kts 126°
2026-04-20 14:43 37.93332 23.93608 301 ft 12 kts 124°
2026-04-20 14:43 37.93283 23.93691 300 ft 12 kts 129°
2026-04-20 14:43 37.93232 23.93772 300 ft 11 kts 127°
2026-04-20 14:43 37.93185 23.93852 302 ft 11 kts 127°
2026-04-20 14:44 37.93137 23.93930 303 ft 12 kts 127°
2026-04-20 14:44 37.93086 23.94017 301 ft 13 kts 127°
2026-04-20 14:44 37.93033 23.94105 302 ft 12 kts 127°
2026-04-20 14:44 37.93008 23.94147 300 ft 3 kts 121°
2026-04-20 14:45 37.93012 23.94169 300 ft 3 kts 57°
2026-04-20 14:45 37.93025 23.94181 303 ft 2 kts 38°
2026-04-20 14:45 37.93036 23.94192 303 ft 2 kts 37°
2026-04-20 14:45 37.93046 23.94202 300 ft 2 kts 38°
2026-04-20 14:46 37.93054 23.94210 302 ft 1 kts 38°
2026-04-20 14:46 37.93061 23.94216 303 ft 1 kts 37°
2026-04-20 14:46 37.93066 23.94220 304 ft 1 kts 34°
2026-04-20 14:46 37.93069 23.94224 301 ft 0 kts 38°
2026-04-20 14:47 37.93071 23.94226 301 ft 1 kts 37°
2026-04-20 14:47 37.93077 23.94231 301 ft 0 kts 38°